GEFSCGP_500_meanwind_090.txt.gz
Wind_Speed
12 11 11 12 12 13 13 13 13 15 16 17 18 19 20 21 21 21 22 23 25 26 28 29 32 34 35 37 38 39 40 40 41 41 40 39 38 37 36 34 33 35 34 34
7 8 10 10 10 11 11 10 11 14 14 15 16 17 18 19 20 21 23 24 26 27 29 30 32 33 35 36 38 39 40 41 41 39 38 37 37 37 35 32 30 30 30 30
5 7 8 8 8 8 9 8 10 12 13 13 14 15 17 18 20 21 23 24 26 27 28 30 31 33 35 36 38 39 38 38 37 37 37 36 36 35 33 32 31 29 27 28
4 6 6 6 7 7 8 10 10 11 11 12 13 13 18 18 19 20 21 23 25 26 28 30 32 33 35 36 37 37 38 38 37 37 37 38 38 36 35 34 33 31 30 31
6 6 6 7 8 8 9 10 10 10 10 11 12 11 19 18 19 20 21 23 24 26 28 30 32 33 34 35 36 37 38 39 40 39 40 39 39 39 38 37 35 34 33 32
6 7 7 8 9 9 9 10 10 10 10 11 14 14 19 20 21 22 24 25 27 28 30 32 34 36 37 38 39 40 41 41 41 42 42 42 42 42 42 41 40 39 37 36
5 8 8 8 9 9 9 9 9 9 10 13 18 18 19 20 22 25 26 28 29 31 32 34 36 38 40 41 42 43 43 43 43 43 43 44 44 45 45 45 44 44 43 42
5 8 9 8 8 9 9 9 9 9 11 14 19 19 19 22 24 26 28 29 31 33 35 36 38 40 41 43 44 44 44 44 45 45 45 45 46 46 47 47 47 48 48 48
5 8 8 8 8 9 9 9 9 11 12 14 17 20 20 23 25 28 29 31 33 35 37 38 40 41 42 42 43 44 45 45 45 46 47 47 48 48 48 49 50 51 52 52
5 7 8 8 9 9 9 10 10 12 13 14 17 22 24 26 27 30 32 34 36 37 38 39 40 41 42 43 44 45 45 45 46 47 49 50 51 52 52 52 52 52 53 55
5 7 9 9 9 10 10 11 12 13 14 16 18 23 25 27 30 32 34 36 37 38 39 39 40 41 42 44 45 45 46 47 49 50 51 52 53 53 54 54 53 53 53 54
6 7 8 9 10 11 12 13 13 15 17 18 21 26 26 29 32 33 35 36 37 38 39 40 40 41 42 43 44 46 48 49 51 52 53 53 54 54 54 54 54 54 54 55
6 7 8 11 12 12 13 14 15 16 18 20 22 27 29 31 33 35 36 37 37 38 39 39 40 42 43 44 45 46 48 50 51 52 53 53 53 53 53 53 53 53 54 54
6 7 7 8 12 14 14 15 17 18 19 22 24 27 30 33 34 36 36 37 37 38 39 40 41 42 43 45 46 47 48 50 51 51 51 51 51 50 50 50 51 51 52 52
7 8 10 11 13 14 15 17 18 19 21 24 26 29 31 34 35 36 36 37 38 39 40 41 41 42 44 45 46 47 48 49 50 49 49 49 48 47 47 48 48 48 49 49
8 9 11 12 14 15 16 17 19 21 23 25 28 30 33 35 36 37 37 38 40 40 40 40 41 43 44 45 46 47 48 48 48 48 47 46 45 44 43 43 43 44 44 45
8 10 11 13 15 16 17 19 20 22 25 27 30 32 34 35 36 37 38 39 41 40 40 41 41 43 44 45 46 47 47 47 47 46 45 43 42 41 40 39 38 38 39 39
9 10 12 14 16 17 18 20 21 23 26 28 31 33 36 37 38 38 39 40 41 40 40 41 42 43 44 46 46 46 47 46 45 45 43 41 39 38 36 35 34 34 34 34
10 11 13 15 17 18 19 21 23 24 26 30 32 35 37 37 37 39 40 41 41 41 41 42 43 44 45 45 46 46 46 45 44 43 40 39 37 34 32 30 30 28 28 28
11 12 14 15 16 19 21 22 24 27 29 33 35 37 39 39 37 38 40 40 40 40 41 42 43 44 45 45 46 46 45 44 44 42 39 37 35 32 30 27 24 22 21 22
12 13 14 16 17 19 21 23 26 29 32 34 36 38 40 40 40 40 40 40 40 40 40 41 43 44 45 45 46 46 45 44 43 41 38 35 32 30 27 23 20 18 17 17
13 14 14 16 17 20 22 24 26 29 32 35 37 39 40 40 40 41 41 40 40 40 40 41 43 44 45 45 46 45 44 43 42 40 36 33 31 28 24 20 16 14 13 13
13 14 15 16 17 20 22 24 27 30 32 35 37 39 40 40 40 41 41 40 40 40 40 41 43 44 44 45 45 45 44 43 42 39 35 31 29 25 21 17 13 10 9 9
13 14 15 16 18 20 22 24 27 30 33 35 38 39 41 41 41 41 42 40 40 40 40 41 42 43 43 43 44 44 43 42 42 39 34 30 26 23 20 16 12 9 6 4
14 15 16 16 18 20 22 25 28 31 33 36 38 40 41 41 41 42 42 41 41 40 40 41 42 42 42 42 43 43 42 41 40 38 34 30 26 22 19 15 12 9 5 2
15 15 16 17 19 21 22 25 28 31 33 36 38 40 41 42 42 42 42 42 41 40 40 40 41 41 41 41 42 42 41 40 39 37 33 30 26 23 19 16 13 10 8 5

GEFSCGP_500_meanwind_096.txt.gz
Wind_Speed
7 5 3 3 8 12 13 12 10 13 17 19 19 22 24 24 23 21 21 21 22 23 24 25 27 29 31 33 34 36 38 39 41 42 42 43 44 44 44 43 43 43 41 40
5 5 4 8 10 10 10 9 11 15 17 19 18 22 23 21 19 17 18 20 22 23 24 25 26 28 30 32 33 35 37 38 40 41 42 43 44 44 44 43 42 41 40 38
8 3 5 6 7 7 8 12 15 15 17 18 20 23 24 22 17 14 17 20 23 25 26 27 28 29 30 32 33 35 37 38 40 41 42 43 43 43 44 43 41 40 39 37
5 3 6 7 7 8 12 13 14 14 16 17 22 29 29 24 16 13 18 21 24 26 27 28 29 30 31 33 35 36 37 39 40 41 42 43 42 42 43 43 42 41 39 38
3 4 6 7 7 9 12 11 13 15 17 19 24 28 26 17 18 20 22 24 26 28 30 31 32 33 34 36 37 38 39 39 40 41 42 42 42 42 42 41 40 40 40 40
5 6 5 6 7 9 10 10 12 16 18 22 23 25 23 15 20 22 25 28 30 31 33 34 35 36 36 37 37 38 39 40 41 41 42 42 41 41 41 42 41 41 40 40
4 3 4 5 6 8 9 11 13 17 18 21 16 15 15 19 23 26 28 31 33 35 36 36 37 37 36 37 38 38 39 40 40 41 41 41 42 42 42 42 42 42 41 41
9 6 5 6 8 9 9 11 13 17 18 19 16 17 18 21 25 28 31 33 35 36 37 37 38 38 38 38 38 38 39 39 39 40 41 42 43 44 43 43 44 44 43 43
9 8 9 10 9 10 9 9 10 12 12 16 21 23 23 25 28 30 32 35 36 37 37 38 38 38 38 38 38 39 39 39 39 40 41 43 44 44 44 44 45 45 46 46
8 7 8 10 9 10 10 10 10 10 10 11 18 24 25 28 29 31 34 36 36 37 37 37 37 38 38 38 38 39 40 40 41 41 42 43 43 44 45 46 47 48 48 49
7 5 5 8 10 9 10 11 11 11 12 12 15 24 26 29 31 33 35 36 37 37 37 37 38 38 38 39 39 40 41 41 41 42 43 43 44 45 46 47 48 49 49 50
5 5 7 8 8 9 11 12 12 13 13 13 13 23 28 31 33 35 36 37 37 37 37 38 38 38 38 39 40 40 41 41 42 43 43 44 46 47 47 48 49 50 50 50
6 5 7 10 9 11 13 14 14 13 13 14 15 21 29 31 33 35 36 36 37 37 37 38 38 38 39 39 40 40 41 42 43 44 45 46 47 47 48 48 48 48 48 49
7 5 5 8 9 11 13 14 15 15 15 15 19 23 28 31 33 35 35 36 37 37 37 38 38 38 39 39 39 40 41 42 43 44 45 46 46 46 46 45 44 44 44 45
6 5 5 6 8 10 12 14 16 17 17 19 22 26 29 32 34 35 35 36 37 37 38 38 39 39 39 39 40 41 43 43 44 45 45 45 45 44 43 42 41 41 41 41
7 7 7 7 9 12 14 16 18 19 20 21 23 26 29 32 34 35 35 36 37 37 38 39 39 40 40 40 41 42 43 44 44 44 45 44 44 42 41 40 39 38 38 39
8 8 7 7 10 13 15 17 19 20 21 23 25 27 30 32 35 35 35 36 37 38 39 40 41 41 41 41 42 42 43 44 44 44 44 43 42 40 38 37 36 36 37 37
8 8 7 6 9 12 15 16 19 21 22 23 26 28 31 34 36 37 37 38 39 40 40 41 41 41 41 41 41 42 43 44 44 43 42 41 40 38 36 35 34 33 32 31
10 9 9 7 7 12 17 17 19 21 23 24 27 29 32 34 36 38 39 40 40 40 41 41 41 40 40 41 41 42 44 43 43 42 41 40 38 37 34 33 32 29 28 27
12 11 10 9 9 12 16 18 20 22 25 26 28 30 32 34 36 37 38 39 40 40 41 41 41 40 40 41 41 43 43 42 42 41 40 38 37 35 33 31 29 27 25 23
14 12 12 12 12 15 17 19 21 23 25 26 28 31 33 35 37 38 39 40 40 41 41 41 41 40 41 41 41 42 42 42 41 40 38 37 35 33 31 28 26 23 20 18
14 14 14 14 14 17 19 20 21 22 24 26 28 30 33 35 37 39 40 40 41 41 42 41 41 40 41 41 41 41 41 41 40 38 37 36 33 31 29 26 23 20 17 15
15 15 16 16 18 19 20 20 21 22 24 26 28 30 33 35 37 39 40 41 41 42 42 42 41 40 41 40 41 40 40 40 39 38 36 34 32 30 28 25 22 19 16 14
17 15 16 17 18 19 20 20 21 23 24 26 28 30 33 35 38 39 40 41 42 42 42 42 41 40 40 39 40 39 40 39 39 37 35 34 31 29 27 25 23 20 17 15
18 18 17 18 18 19 20 21 22 23 25 26 28 31 33 35 38 39 40 42 42 42 42 41 41 40 39 39 39 39 39 38 37 36 35 33 31 29 28 25 23 20 17 15
17 18 18 19 19 20 21 22 23 24 25 27 29 31 33 36 38 39 40 42 42 42 42 41 40 40 39 39 38 38 38 37 36 35 34 32 30 29 28 26 23 21 19 15

GEFSCGP_500_meanwind_102.txt.gz
Wind_Speed
4 3 3 4 4 5 5 6 7 9 13 17 19 22 23 25 25 22 22 24 22 20 20 21 22 23 25 26 28 30 32 33 34 35 36 37 37 38 38 38 39 39 38 38
2 3 4 5 6 6 7 9 9 10 13 17 19 21 22 25 26 24 21 19 19 18 18 19 21 22 25 26 28 30 32 34 36 37 37 37 38 39 39 39 40 40 39 38
4 4 5 6 6 7 7 8 10 13 15 17 20 23 25 25 25 23 19 16 16 17 18 20 22 24 26 28 30 32 34 35 36 37 37 38 38 39 39 39 40 40 40 39
5 5 5 5 6 7 7 8 9 13 16 18 20 21 22 23 23 20 15 14 15 17 19 21 23 26 27 29 31 32 34 35 35 36 37 37 38 39 39 40 40 40 39 39
4 4 5 4 6 7 6 8 9 11 12 14 15 17 18 20 18 14 12 13 15 16 19 22 25 26 28 29 30 31 33 34 34 35 36 37 38 39 39 39 39 39 39 39
4 2 4 5 5 6 7 9 9 10 10 11 13 15 16 14 14 13 14 16 17 18 20 22 24 26 27 28 29 30 31 32 33 34 34 35 36 37 38 38 38 38 39 39
3 2 3 4 6 5 6 8 8 9 9 10 13 14 13 14 15 15 16 18 20 21 23 24 25 26 27 27 28 29 30 31 32 33 34 35 35 36 37 38 39 39 40 40
3 3 4 5 5 6 7 8 8 10 10 11 12 13 14 16 17 18 20 22 24 26 26 27 27 28 28 28 29 30 31 32 32 33 34 35 36 36 37 38 39 39 40 41
6 6 6 6 6 7 8 8 9 10 10 11 11 13 15 18 20 22 24 26 28 29 29 30 30 30 31 31 32 32 33 33 33 34 35 36 37 37 39 40 40 40 40 41
6 6 7 7 6 7 8 9 9 8 10 11 13 15 17 20 22 25 27 29 30 31 31 32 32 32 33 34 34 34 34 34 34 35 36 37 38 39 40 41 41 42 41 41
6 5 5 4 4 6 8 8 9 10 12 13 15 17 20 22 25 27 29 30 31 32 32 33 33 33 34 35 36 36 36 36 37 37 38 38 39 40 41 41 41 42 42 42
5 5 5 5 5 6 8 8 10 12 13 15 17 19 22 23 26 28 30 31 33 33 33 34 34 35 35 36 37 37 37 37 38 38 39 39 40 41 41 41 41 41 41 41
4 5 6 6 6 7 8 9 11 12 14 16 19 21 23 25 27 29 30 32 33 34 34 35 35 36 36 37 37 37 37 37 38 38 39 39 40 41 41 41 41 41 40 40
4 5 5 5 5 6 8 9 11 13 16 17 19 21 23 25 27 28 30 32 34 34 35 36 36 36 37 37 37 37 37 37 38 39 40 40 40 40 40 40 39 39 38 37
4 5 5 5 6 7 8 9 11 14 16 18 20 22 24 26 27 29 32 33 34 34 35 36 37 37 37 37 37 38 38 38 39 40 40 40 40 40 39 38 37 37 36 35
3 4 5 5 6 7 8 10 12 14 16 19 21 23 25 27 28 30 32 33 34 35 36 37 38 38 38 38 38 38 38 39 39 40 40 40 39 39 38 36 35 34 33 32
3 4 4 6 7 8 8 9 11 14 16 19 21 23 25 27 28 30 32 34 35 36 37 38 39 38 38 38 38 38 38 39 39 40 40 39 39 38 36 35 33 31 30 29
4 5 5 7 8 8 9 10 12 15 17 19 21 23 26 28 29 31 33 35 36 37 38 39 39 39 39 39 38 38 38 39 40 40 39 39 38 36 35 33 31 30 28 27
5 6 7 8 9 10 9 12 14 16 17 20 22 24 26 28 30 32 34 35 36 37 38 39 40 40 39 38 38 38 39 39 39 39 39 37 36 34 33 31 29 28 26 25
5 6 7 9 10 10 10 13 15 16 18 20 22 24 26 28 30 32 34 36 37 38 39 39 40 40 39 38 38 38 38 39 39 39 38 36 35 33 31 30 29 27 25 23
7 8 9 11 12 11 12 14 16 18 20 21 23 25 26 28 30 32 34 36 37 38 39 40 40 40 39 38 38 38 38 39 39 38 37 36 34 33 31 29 28 26 24 22
11 12 12 13 13 14 14 16 17 19 20 22 23 25 26 28 30 33 35 36 37 38 39 40 40 39 39 38 38 38 38 39 39 38 37 35 34 32 31 29 27 25 24 22
13 14 14 14 14 14 15 16 18 19 21 22 23 25 26 28 30 33 34 36 37 38 39 39 40 39 39 39 38 38 38 38 39 38 36 35 33 32 31 29 27 26 24 22
14 15 15 15 14 15 15 17 18 20 21 22 24 25 27 28 31 33 34 36 37 37 38 39 39 39 39 39 38 38 38 38 39 38 36 34 33 31 30 29 27 26 25 23
16 16 15 15 16 15 15 17 18 20 21 23 24 25 27 29 31 32 34 35 37 37 38 39 39 39 38 38 38 38 38 38 38 38 36 34 32 31 30 29 28 26 25 24
16 16 16 16 17 18 18 18 19 21 22 24 25 26 27 29 30 32 34 35 37 37 38 38 38 38 38 38 38 38 37 37 37 37 36 34 32 31 30 28 27 26 25 24

GEFSCGP_500_meanwind_108.txt.gz
Wind_Speed
10 10 10 9 10 11 11 12 12 12 11 12 13 15 16 18 19 20 21 22 23 23 24 23 22 23 24 25 26 27 28 29 30 31 31 32 32 32 33 33 33 33 33 34
8 8 8 9 9 10 10 11 11 12 12 13 13 14 15 17 18 19 21 21 22 24 24 22 22 23 24 26 28 29 31 32 32 33 33 33 33 34 34 34 35 35 35 35
8 7 8 8 8 10 10 11 12 12 13 13 13 14 16 17 17 18 19 19 20 21 22 22 22 24 25 26 28 29 31 32 33 34 34 34 34 35 35 35 35 35 35 35
7 7 7 7 8 9 10 11 11 11 11 12 12 13 13 14 14 15 15 17 18 19 20 20 22 24 25 27 28 29 30 31 32 33 34 34 35 35 36 36 36 36 36 36
6 6 7 8 8 9 10 10 10 11 11 10 10 11 11 12 13 14 14 15 16 17 17 19 21 22 24 25 27 29 30 31 32 33 34 34 34 35 36 36 36 36 36 36
7 6 7 7 9 10 10 10 9 10 11 10 10 11 11 12 12 12 14 15 16 16 17 19 20 21 23 25 26 27 29 30 31 32 32 33 33 34 34 35 36 36 37 37
6 6 6 7 8 8 8 9 9 9 9 9 9 10 10 10 11 12 14 15 16 16 17 18 19 21 23 24 25 26 27 28 30 31 31 32 33 34 35 36 36 37 37 37
6 6 6 6 7 7 7 8 9 8 8 7 8 8 9 9 11 13 14 15 16 17 18 19 21 22 23 24 26 27 28 28 29 30 31 32 33 34 35 36 36 37 37 38
6 7 6 6 6 7 7 6 7 6 6 6 7 8 9 10 12 14 15 16 18 19 20 21 23 24 25 26 27 27 28 29 30 31 32 33 34 34 35 36 36 37 37 38
5 5 5 6 6 6 6 6 6 6 7 7 7 8 10 12 13 15 17 18 20 21 22 24 25 26 27 28 28 29 29 30 31 32 32 33 33 35 35 35 36 36 37 38
5 6 5 6 6 6 5 6 6 6 7 8 8 9 11 13 15 17 18 21 22 23 24 25 27 28 29 29 30 30 31 31 32 32 33 33 34 35 35 35 35 35 36 36
7 7 6 6 5 5 6 6 6 7 7 8 9 10 12 15 16 18 20 22 24 25 26 27 28 29 30 31 32 32 32 32 33 33 34 34 35 35 35 35 36 36 36 37
8 8 6 6 5 5 6 6 6 7 8 9 11 12 14 16 18 20 22 23 25 26 27 29 30 31 31 32 33 33 33 33 33 34 34 35 36 36 36 36 36 36 36 36
8 7 7 7 7 7 7 7 8 9 10 11 12 14 15 17 19 21 23 24 26 27 29 30 31 32 33 33 34 34 34 34 34 34 35 36 36 36 37 36 36 35 35 34
9 8 7 7 8 8 7 8 9 10 11 12 13 14 16 18 20 22 24 25 27 29 30 31 32 33 34 34 35 35 35 34 34 35 36 37 37 37 37 36 35 35 34 33
9 9 8 8 8 7 8 9 10 11 12 13 14 15 17 19 21 23 25 26 28 30 31 33 33 34 34 35 35 35 35 34 35 36 37 37 37 37 36 35 34 33 32 31
9 9 9 9 9 9 9 10 11 11 12 13 15 16 17 19 22 23 26 28 29 31 32 33 34 35 35 35 36 35 35 35 35 37 37 38 37 36 35 34 33 32 31 30
10 11 11 11 11 10 10 11 12 12 13 14 15 16 18 20 22 24 26 28 30 32 32 33 34 35 35 36 36 36 36 35 36 37 38 38 37 36 35 34 33 32 30 29
10 11 11 11 11 10 11 12 13 13 14 15 16 17 18 20 23 24 26 28 30 32 33 34 34 36 36 36 36 36 36 36 36 37 38 37 36 36 35 34 33 31 30 28
10 11 11 11 11 11 11 12 13 13 13 15 16 17 19 21 23 24 26 29 30 32 33 34 35 36 36 36 36 37 37 36 36 37 37 37 36 36 35 34 32 31 30 29
10 10 10 11 11 11 12 13 13 14 14 15 16 18 20 22 23 25 27 28 31 32 33 34 35 36 36 36 37 37 37 36 36 37 37 36 36 36 35 34 32 31 30 28
10 10 10 11 12 13 13 14 14 15 15 16 17 19 20 22 23 25 26 28 30 31 32 34 35 36 36 36 37 36 37 37 36 36 36 36 36 35 34 33 32 31 30 28
11 11 11 12 13 13 14 14 15 16 17 17 18 19 20 21 23 24 26 28 30 31 32 34 35 36 36 36 36 36 37 37 37 36 36 35 35 35 34 33 32 31 30 28
13 13 13 13 13 14 15 15 16 17 18 18 19 19 20 22 23 24 26 28 29 30 32 33 35 35 36 36 36 36 37 37 36 36 35 35 34 34 34 33 32 31 29 28
14 14 14 14 14 15 15 16 17 17 18 19 19 20 21 22 23 24 26 27 29 30 32 33 35 35 36 36 36 37 37 37 36 36 35 34 33 33 32 32 32 31 30 29
16 17 17 16 16 16 16 17 17 18 19 19 20 20 21 22 23 25 26 28 29 30 32 33 34 35 35 36 36 36 37 37 36 36 35 34 33 32 32 31 31 31 30 29

GEFSCGP_500_meanwind_114.txt.gz
Wind_Speed
11 10 9 8 7 7 7 8 8 8 9 10 11 11 11 12 12 13 15 17 18 19 19 19 20 21 21 21 21 21 22 22 22 23 23 24 25 25 25 26 26 26 27 27
10 9 9 8 7 7 7 7 8 9 9 9 10 11 11 12 12 13 14 15 16 17 17 18 20 21 21 21 21 21 21 22 22 23 23 24 25 26 26 26 27 27 28 28
8 8 8 7 6 6 7 8 9 9 8 9 10 10 10 11 11 12 13 14 15 16 16 17 18 18 19 19 20 20 21 22 22 23 24 25 26 26 26 26 27 27 28 29
8 8 8 7 6 6 8 8 8 9 9 10 10 11 11 10 10 10 12 13 14 15 15 17 18 18 18 19 20 21 22 23 23 24 24 25 25 26 26 27 27 28 28 29
8 8 8 7 7 7 8 9 8 9 9 9 10 10 10 10 11 11 11 12 13 15 16 17 17 18 19 19 20 20 21 22 22 23 23 24 24 25 26 27 27 28 29 30
8 8 8 8 8 8 8 8 8 8 8 8 8 8 10 11 11 10 11 12 13 15 16 17 17 18 19 19 20 21 21 22 22 23 23 23 24 25 26 27 28 29 30 31
8 7 7 7 7 7 7 6 7 8 7 7 7 7 8 9 9 10 11 12 14 15 17 17 18 18 19 19 20 21 22 22 23 23 23 24 24 25 26 28 29 30 31 31
6 7 7 6 6 6 5 4 3 4 6 6 7 7 8 9 9 10 12 13 15 16 17 18 18 19 19 20 21 22 22 23 23 23 23 24 24 25 26 28 29 30 30 31
5 7 6 5 5 4 4 4 4 4 5 5 7 8 8 9 10 11 12 13 15 16 18 18 18 19 20 21 22 22 23 23 23 23 23 24 25 26 27 28 28 29 30 31
5 6 6 5 5 4 5 5 5 4 4 5 7 8 9 9 10 12 13 14 15 17 18 18 19 19 20 21 22 23 23 23 23 23 24 25 25 26 27 28 28 29 30 30
6 6 6 6 5 5 6 5 5 4 5 4 6 9 9 10 11 12 13 14 16 17 18 19 20 20 21 22 23 23 23 23 23 24 24 25 26 27 27 28 28 29 29 30
6 6 7 7 7 7 7 6 5 5 6 5 6 9 9 10 11 12 13 15 17 18 19 20 21 21 22 23 23 23 23 24 24 25 25 26 27 27 27 28 28 29 29 30
7 6 5 8 9 8 7 7 6 6 6 6 6 10 10 10 11 13 14 15 17 18 20 20 21 21 22 23 24 24 24 25 25 26 26 27 27 27 28 28 29 29 30 31
8 7 7 8 9 10 8 7 7 6 6 7 8 9 10 11 12 13 14 16 17 18 20 21 21 22 23 24 25 25 25 26 26 27 27 28 28 28 29 30 30 31 31 31
9 8 8 9 9 9 8 8 8 8 8 8 9 10 10 11 13 14 15 16 17 19 20 21 22 23 24 25 25 26 26 27 27 27 28 28 28 29 30 31 31 31 31 31
9 9 9 9 8 8 9 9 9 9 9 9 10 10 11 12 14 15 15 16 18 19 21 22 23 23 24 25 26 26 27 28 28 28 28 29 29 30 30 31 31 31 31 31
10 9 8 8 9 9 9 9 10 10 10 10 10 11 12 13 14 15 16 17 18 20 21 22 23 24 25 26 26 27 28 28 28 29 29 30 30 30 31 31 31 31 31 30
9 8 8 8 9 9 10 10 11 10 11 10 11 11 12 13 14 15 16 17 18 20 21 22 23 24 25 26 27 28 28 28 29 29 29 30 31 31 31 31 31 31 30 30
10 9 9 8 8 9 11 10 10 10 10 11 11 11 12 13 14 15 16 17 18 20 21 22 24 25 26 27 27 28 28 29 29 29 30 31 31 31 32 32 31 31 30 29
11 10 10 10 9 9 11 10 9 10 10 11 11 12 13 13 14 15 16 17 18 20 21 22 24 25 26 27 27 28 29 30 30 30 30 31 32 32 32 32 31 30 29 29
12 12 11 11 11 11 12 11 10 10 11 11 12 12 13 14 15 15 16 17 18 20 21 22 24 25 27 28 28 28 29 30 30 31 31 31 32 32 32 32 31 30 29 29
14 13 12 12 11 13 13 12 11 11 12 12 12 13 13 14 15 16 17 18 19 20 21 22 24 26 27 28 28 28 29 30 31 31 31 32 32 33 33 32 31 30 29 29
15 15 14 13 14 14 13 13 13 13 13 13 13 14 14 14 15 16 17 18 19 20 21 22 24 26 27 27 28 29 30 31 31 31 31 32 32 33 33 33 31 30 29 29
16 16 16 15 16 15 15 15 14 14 14 14 15 15 15 15 16 17 18 19 19 20 21 22 24 26 27 27 28 29 30 31 31 31 32 32 32 33 33 33 32 30 30 29
18 17 17 17 17 17 17 16 16 16 16 17 17 17 17 17 17 18 19 19 20 21 22 23 24 26 27 28 29 30 31 32 32 32 32 32 32 33 33 33 32 30 30 29
19 19 18 19 19 18 18 18 18 18 18 18 18 18 18 18 19 19 20 20 21 21 22 23 24 26 27 28 29 31 31 32 32 32 33 33 33 33 33 33 32 31 30 29

GEFSCGP_500_meanwind_120.txt.gz
Wind_Speed
9 10 10 11 12 11 9 9 10 12 13 11 10 10 10 10 10 10 9 9 12 13 13 14 16 17 18 18 18 19 20 18 18 18 19 21 22 22 22 22 22 23 24 24
13 12 11 10 9 9 9 8 9 9 10 11 11 10 9 9 10 10 9 10 10 11 12 14 15 15 17 17 17 18 18 18 18 19 20 20 21 21 21 22 22 23 24 24
10 11 12 11 9 10 9 8 9 9 9 10 10 9 8 7 9 9 9 9 10 11 12 13 14 15 16 16 17 17 17 17 18 20 20 21 21 21 21 21 22 22 23 24
9 10 12 11 10 9 8 7 8 9 11 11 10 11 10 10 8 9 9 10 10 11 13 14 15 16 16 16 17 17 17 18 19 20 20 20 20 21 21 21 21 21 22 22
8 10 11 10 10 9 8 7 6 7 10 11 9 10 11 10 11 10 10 10 11 12 14 15 16 17 17 18 18 18 18 19 19 19 20 20 20 21 21 21 21 22 22 23
8 9 9 9 9 8 6 6 7 8 10 10 9 11 12 12 12 12 11 12 12 14 15 16 17 18 18 19 19 19 19 19 20 20 20 21 21 21 21 22 22 23 23 24
10 9 9 9 8 7 7 7 9 12 12 11 11 10 11 11 12 13 13 13 14 14 16 17 18 18 19 19 19 19 20 20 21 21 21 21 21 21 22 23 23 24 24 25
9 11 11 11 9 7 6 6 8 9 10 10 9 11 12 11 12 12 13 14 15 15 16 18 18 18 18 19 20 20 21 21 21 21 22 22 21 22 22 22 23 24 24 25
8 11 11 11 9 7 6 5 5 8 8 7 6 13 11 12 12 12 13 14 15 16 17 18 19 19 19 19 20 21 22 22 22 22 22 22 22 22 23 23 23 23 24 24
9 10 10 10 9 8 6 5 4 6 8 10 8 12 15 15 14 15 15 15 16 17 18 18 18 19 19 20 21 21 22 22 22 22 22 22 22 22 23 23 24 23 24 25
12 11 11 10 10 8 8 7 5 4 5 6 10 14 16 16 15 16 17 17 17 18 18 19 19 20 20 20 21 22 22 22 23 23 23 23 23 23 24 24 24 24 25 25
13 12 12 11 12 11 9 7 6 6 5 4 9 17 16 16 16 16 16 17 17 18 18 19 19 20 21 22 22 23 23 23 23 24 23 24 24 24 25 25 25 25 26 26
13 13 13 13 14 11 9 8 7 6 5 4 9 17 17 16 15 15 15 16 16 17 18 19 20 20 21 22 23 23 24 24 24 24 24 24 25 25 26 26 26 26 27 27
13 13 13 13 13 9 7 7 7 7 6 7 10 16 17 16 16 16 15 16 16 17 17 18 19 20 21 22 23 24 24 24 25 25 25 25 25 26 27 27 27 27 27 27
14 14 14 13 11 9 9 8 9 10 9 10 12 15 17 16 17 16 16 16 17 17 17 18 19 20 21 22 23 24 24 24 25 26 26 26 27 27 28 28 28 28 28 28
14 14 13 12 10 10 11 11 10 11 11 11 13 16 17 16 17 16 16 16 17 17 17 18 19 20 21 23 24 24 24 25 25 26 27 28 28 28 29 29 29 29 29 29
15 14 12 11 10 11 11 12 12 12 12 12 14 17 17 17 16 16 16 16 17 17 18 18 19 20 22 23 24 25 25 26 26 27 28 28 29 29 30 30 29 30 30 30
15 14 12 10 10 10 10 13 13 13 13 14 16 17 17 17 16 16 16 16 17 17 18 18 19 20 22 23 24 25 25 26 27 27 28 29 29 29 30 30 30 30 30 30
15 13 12 12 11 11 12 14 13 14 14 15 15 15 16 16 16 15 15 16 17 17 18 19 20 21 22 23 24 25 26 27 27 28 28 29 29 30 30 31 31 31 31 31
14 13 14 14 14 14 15 14 13 14 16 16 15 15 16 16 16 15 15 16 17 17 18 19 19 21 22 23 24 25 25 26 28 28 29 29 30 30 31 31 32 31 31 31
15 14 14 14 13 14 16 15 15 15 17 17 17 16 17 17 17 17 17 17 18 18 18 19 20 21 22 23 24 25 25 26 28 28 29 30 30 31 31 32 32 32 32 32
14 15 16 16 15 19 20 19 18 17 16 17 18 18 17 17 17 17 17 18 18 18 19 20 20 21 22 23 24 25 25 26 27 28 29 30 31 32 32 32 32 32 32 32
16 18 20 20 21 20 20 20 20 18 18 18 18 19 18 18 18 18 18 18 19 19 20 20 21 22 23 23 24 25 25 26 28 29 30 31 31 32 32 33 32 32 32 32
21 21 22 21 20 19 20 20 19 19 19 19 19 20 20 19 19 19 19 19 19 20 20 21 22 22 23 24 24 25 26 27 28 29 30 31 32 32 33 34 33 33 33 33
22 20 20 20 19 20 21 21 22 22 20 19 20 21 20 20 20 20 20 20 20 21 21 22 22 23 24 25 26 26 27 28 29 30 31 32 33 34 34 34 34 34 34 33
24 22 23 23 22 22 23 24 24 23 22 21 21 21 21 21 21 21 21 21 21 22 22 22 23 24 25 26 27 28 29 30 30 31 32 33 34 35 35 34 35 35 33 33

GEFSCGP_500_meanwind_126.txt.gz
Wind_Speed
8 7 7 8 11 12 12 12 11 9 9 10 10 9 9 9 8 6 5 4 5 6 6 6 7 8 9 11 11 11 11 12 12 13 13 13 13 14 15 17 17 18 18 18
8 8 9 10 11 11 11 11 10 9 10 10 10 9 9 10 8 7 6 5 5 5 5 5 6 8 9 10 11 11 11 11 11 12 12 12 13 13 15 16 16 17 17 18
8 8 9 10 10 10 10 10 9 9 10 10 9 8 7 7 6 7 6 6 5 6 6 6 7 8 9 9 10 10 10 11 11 11 12 12 13 13 14 15 15 16 17 18
7 7 8 9 9 8 8 8 9 7 9 10 9 7 6 5 5 6 6 5 5 6 6 7 7 8 9 9 10 10 10 11 11 12 12 12 13 13 13 14 14 15 16 17
6 6 7 7 7 7 7 7 8 8 8 8 7 6 5 6 6 7 7 7 7 7 7 8 8 9 10 10 11 11 12 12 12 12 12 13 13 13 14 14 14 15 16 16
5 6 6 6 6 6 6 6 7 7 6 6 6 6 7 6 7 7 7 8 8 8 8 9 10 11 11 12 12 13 13 13 13 13 13 13 13 14 14 14 14 15 15 16
6 5 5 5 5 5 6 6 6 6 5 5 5 6 7 7 7 8 8 8 9 9 10 10 11 11 12 12 13 14 14 14 14 14 14 14 14 14 14 15 15 15 16 17
8 5 5 5 5 5 6 6 6 7 7 6 5 5 6 7 8 8 9 9 9 9 10 10 11 12 12 12 13 14 14 15 15 14 15 15 15 15 15 16 16 16 16 17
7 6 5 6 6 5 6 6 6 7 5 5 3 4 5 7 8 9 9 9 9 9 10 10 11 12 11 12 13 14 15 15 15 15 15 16 16 16 16 16 16 17 17 18
10 9 7 7 7 6 6 6 6 7 7 7 5 5 5 6 7 8 8 8 9 9 9 10 11 11 11 12 13 14 14 15 15 16 16 16 17 17 17 17 18 18 18 19
11 10 9 10 9 9 8 8 9 9 9 9 7 6 6 6 7 8 8 8 9 9 9 10 11 11 11 12 13 14 15 15 16 16 16 17 17 18 18 18 19 19 19 19
11 12 12 12 11 12 11 11 10 9 9 10 10 7 6 7 7 7 8 8 8 8 9 10 10 11 11 12 13 14 15 16 16 17 17 17 18 18 19 19 20 20 20 21
13 14 13 12 12 12 11 10 10 9 10 10 10 8 7 7 7 7 7 8 8 8 9 9 10 11 12 13 14 15 15 16 16 17 18 18 19 19 20 20 21 22 22 23
14 14 13 12 13 12 12 11 11 11 11 10 10 9 8 7 7 6 7 8 8 8 9 10 10 11 12 13 14 15 16 16 17 17 18 19 19 20 21 22 22 23 23 24
16 15 14 14 14 14 13 12 12 13 12 11 10 8 7 6 6 7 7 7 7 8 9 10 11 11 12 13 14 15 16 16 17 18 19 19 20 21 22 22 23 24 24 25
17 16 16 15 16 16 15 13 14 14 13 11 10 9 7 7 8 8 8 7 8 8 9 10 10 11 12 13 14 15 16 16 17 18 19 20 20 21 22 23 24 25 25 26
19 17 16 16 16 16 15 15 15 14 13 12 11 10 9 9 9 9 9 8 8 8 8 9 10 11 12 13 14 15 16 17 17 18 19 20 21 22 23 24 25 26 26 27
19 19 18 17 18 19 15 15 15 15 14 13 11 10 9 9 10 9 9 9 8 8 9 10 11 12 13 14 14 16 16 17 18 19 19 20 21 23 24 25 26 27 27 28
18 18 18 18 19 18 16 16 16 16 15 13 12 11 10 9 9 9 9 9 9 10 10 11 11 12 13 14 15 16 17 18 18 19 20 21 22 23 25 26 27 27 28 29
18 18 19 19 19 18 16 17 17 18 16 13 12 12 11 10 10 10 10 10 10 11 12 12 13 13 14 15 16 17 17 18 19 20 21 22 23 24 25 26 27 28 29 29
20 19 19 18 19 18 16 17 18 19 17 16 14 13 12 12 11 11 11 11 11 12 13 13 14 14 15 16 16 17 18 19 20 21 22 23 23 25 26 27 28 29 29 30
20 19 20 19 19 19 19 18 18 17 17 16 15 14 14 13 13 12 12 12 13 13 14 15 15 16 16 17 17 18 19 20 21 22 23 24 25 25 26 27 28 29 30 30
20 19 19 19 19 18 19 18 17 18 18 17 16 15 15 15 15 15 15 14 15 15 15 16 17 18 18 19 19 20 20 21 22 23 24 24 25 26 27 28 28 30 31 31
22 22 21 19 18 18 18 19 18 17 17 17 14 14 14 15 16 17 17 16 16 16 17 17 18 19 19 20 20 21 21 22 23 24 25 26 26 27 28 28 29 30 31 31
23 21 20 20 19 18 17 17 16 16 16 16 14 13 14 15 15 16 16 17 17 17 18 18 19 20 20 20 21 22 23 24 24 25 26 27 27 28 29 29 30 30 30 31
23 22 22 21 19 18 17 17 15 16 16 16 15 15 15 16 16 17 18 18 18 18 19 20 21 21 21 22 23 24 25 25 26 26 27 28 28 29 29 30 30 31 31 32

GEFSCGP_500_meanwind_132.txt.gz
Wind_Speed
13 12 12 12 12 11 11 10 10 9 7 7 6 6 7 6 6 5 4 5 4 3 3 3 3 3 3 2 2 3 4 4 5 6 8 9 10 11 12 13 13 14 14 15
12 12 11 11 11 10 9 9 9 8 7 6 5 5 6 6 6 5 4 4 3 3 3 3 3 3 3 2 2 3 3 4 5 5 6 7 8 9 10 11 12 13 14 15
11 10 10 10 9 9 9 8 7 8 8 5 5 5 6 6 5 4 3 3 3 3 3 3 3 3 2 3 4 4 4 4 5 5 6 6 8 9 10 11 12 13 13 14
11 10 9 9 8 8 8 7 7 7 6 5 5 5 5 6 4 3 3 3 3 3 3 4 3 3 3 4 4 5 5 5 5 6 6 7 8 9 9 10 11 11 12 13
11 9 10 9 8 7 7 6 6 6 5 4 5 5 4 4 3 2 3 2 2 2 4 3 3 3 3 4 4 5 6 6 6 6 6 7 8 8 9 10 10 11 12 12
11 10 9 9 8 7 7 6 6 5 5 4 5 5 3 3 3 2 2 1 1 2 3 3 3 3 3 4 4 5 6 6 6 6 7 7 8 8 9 10 11 11 11 12
12 11 9 9 8 8 7 7 7 5 5 5 5 4 3 3 2 2 2 1 1 2 2 2 2 3 3 4 5 5 6 7 7 7 7 8 8 9 10 10 11 11 12 13
13 11 9 9 9 8 8 8 7 7 6 6 5 4 3 3 2 2 2 2 2 2 1 1 2 3 4 5 5 6 7 8 8 8 8 8 9 9 10 11 11 12 13 13
14 12 11 10 10 10 9 8 8 8 7 6 5 3 3 4 3 3 3 3 2 2 1 1 2 2 3 4 5 6 7 8 8 8 9 9 10 10 11 11 12 13 14 14
15 13 13 12 11 11 10 9 9 8 9 7 6 5 5 5 5 4 5 4 3 3 2 1 1 2 3 4 5 6 7 8 9 9 10 10 11 11 11 12 13 14 15 15
16 15 14 14 12 11 11 10 10 10 10 10 8 6 7 6 6 6 6 5 5 4 3 2 2 2 3 4 5 6 7 8 9 9 10 10 11 12 12 13 14 15 15 16
17 16 16 16 14 14 13 12 12 12 11 10 9 7 8 7 7 7 7 7 6 5 4 4 3 3 3 4 5 7 8 8 9 9 10 10 11 12 13 14 15 15 16 17
18 17 16 16 16 15 15 13 13 13 12 11 10 8 8 8 8 8 8 8 7 6 6 5 4 4 4 5 6 7 8 8 9 10 10 10 11 12 13 14 15 16 17 18
19 18 17 16 15 15 14 14 14 15 13 12 11 10 9 9 10 10 9 9 8 8 7 6 6 5 5 5 6 7 8 9 9 10 10 11 12 13 14 15 16 17 18 19
19 18 17 16 15 16 15 15 16 16 15 15 13 12 11 11 11 10 10 11 10 9 8 8 7 7 6 6 7 7 8 9 10 10 11 11 12 13 14 16 17 18 19 20
19 19 18 17 17 18 18 17 17 17 17 15 14 12 11 11 11 12 12 12 12 11 10 10 9 8 8 8 8 8 9 10 10 11 12 12 13 14 16 17 18 19 20 21
19 19 19 18 18 19 19 18 19 18 17 15 14 12 13 12 12 12 13 13 13 13 12 11 11 10 9 9 10 10 10 11 11 12 13 14 15 16 17 18 19 20 21 22
21 21 21 20 20 22 18 19 19 19 18 16 14 13 13 13 13 13 13 13 14 13 12 12 12 11 11 11 11 11 11 12 13 14 15 15 16 17 19 20 21 21 22 23
20 21 21 21 21 20 18 20 20 19 18 16 15 14 14 14 14 13 13 13 13 13 13 13 13 12 12 12 12 13 13 13 14 15 16 17 18 19 20 21 22 23 23 24
20 20 21 21 21 19 17 19 19 19 17 16 16 16 16 16 16 15 15 14 14 14 14 14 14 14 14 14 14 14 15 15 16 17 18 19 19 20 21 22 23 24 24 25
21 21 21 20 20 18 16 17 18 18 15 16 17 17 18 18 19 18 17 16 15 15 15 15 16 16 16 15 15 16 16 16 17 18 19 20 21 22 23 24 24 25 25 26
21 22 21 20 19 16 16 17 18 17 18 18 18 18 19 20 20 19 18 18 17 17 17 17 17 17 17 17 17 17 17 18 19 20 21 22 23 24 25 25 26 26 26 27
22 21 20 20 19 17 17 18 18 18 18 18 19 19 20 20 20 20 20 19 19 19 18 18 18 19 19 18 19 19 19 20 20 21 22 23 24 25 26 27 27 28 28 28
21 20 20 19 18 18 18 18 18 19 19 19 20 21 20 21 21 21 20 20 19 20 20 20 20 20 20 20 20 21 21 22 22 23 24 25 25 26 27 28 28 29 29 29
19 19 19 19 19 19 19 19 19 19 19 20 20 20 21 20 20 20 20 20 20 21 21 21 21 21 21 21 21 22 22 23 24 25 25 26 27 27 28 29 29 30 31 31
20 20 21 20 20 20 21 21 21 20 20 20 22 22 21 21 21 22 21 20 21 21 21 21 21 21 22 22 22 23 23 24 25 26 27 27 28 29 30 31 31 32 32 33

GEFSCGP_500_meanwind_138.txt.gz
Wind_Speed
14 13 11 11 11 11 11 11 10 11 11 9 8 7 7 6 5 5 5 4 3 3 2 2 0 2 3 4 6 7 7 8 8 9 9 10 9 9 9 8 9 10 11 12
14 13 12 12 12 11 11 10 10 10 9 8 7 6 6 6 5 5 5 4 3 2 1 1 0 1 2 2 3 4 5 6 7 7 7 7 7 7 7 8 8 9 10 11
14 13 13 12 11 10 10 9 8 8 7 7 6 6 6 6 6 6 5 4 3 2 2 2 2 2 1 2 2 3 3 3 4 5 5 5 5 5 6 6 6 8 9 9
15 14 13 12 11 10 10 9 8 7 6 6 6 6 7 6 5 5 4 3 2 2 1 2 2 2 2 2 2 2 2 1 2 3 3 3 4 4 4 5 6 7 7 8
16 14 13 12 11 10 9 9 7 6 6 6 7 6 6 6 5 3 3 2 2 1 1 2 2 2 2 2 2 2 2 1 1 1 1 2 3 3 4 4 5 6 6 7
17 16 15 14 13 11 10 9 7 6 6 6 7 7 6 5 4 4 3 2 1 1 1 1 1 2 2 3 3 2 1 1 1 1 0 0 1 2 3 4 4 4 5 6
17 16 15 15 14 12 11 8 6 6 6 7 8 7 5 4 4 3 2 2 1 1 0 0 1 1 2 3 2 2 1 1 1 1 1 1 1 2 2 3 3 4 5 6
18 16 17 15 13 12 11 9 7 6 6 8 8 6 6 5 5 4 3 2 2 1 1 1 0 1 2 2 2 2 1 1 1 1 1 1 1 2 2 2 3 4 5 6
17 17 17 16 15 13 11 10 9 8 7 6 6 6 6 6 5 4 3 2 2 2 2 2 1 1 1 1 1 1 1 0 0 1 1 1 2 2 2 3 4 4 6 7
18 18 19 17 15 14 13 11 10 8 7 5 6 6 6 6 5 4 3 3 3 3 2 3 3 2 2 1 1 1 1 1 1 1 1 2 2 2 3 4 4 5 6 7
19 18 19 18 17 15 14 12 11 10 9 7 7 7 8 7 6 5 5 4 4 4 4 4 4 4 3 3 2 2 2 2 2 2 2 2 2 3 4 4 5 6 7 8
21 20 18 18 18 17 16 14 13 12 11 9 7 8 9 8 8 7 6 6 5 5 5 5 5 5 5 5 4 4 4 4 4 4 3 3 3 4 5 5 6 7 8 9
22 21 18 18 18 18 17 16 15 14 12 11 9 10 11 9 9 8 8 7 7 7 7 6 6 6 6 6 6 6 6 6 5 5 5 4 5 5 6 7 8 9 10 11
23 22 20 18 17 18 17 17 16 15 12 12 12 11 11 11 10 10 9 9 9 9 9 8 8 8 7 7 7 7 7 7 6 6 6 6 6 7 7 8 9 10 11 12
23 22 21 20 21 20 18 18 17 16 15 14 14 13 12 12 12 11 11 11 10 10 10 9 9 9 9 9 9 9 9 8 8 8 8 8 8 8 9 9 10 11 12 13
24 23 21 21 21 20 19 18 17 17 17 16 15 13 13 13 13 13 12 12 11 11 11 11 11 10 10 11 11 10 10 10 10 10 10 10 10 10 11 11 12 13 14 15
23 22 20 19 19 20 19 18 18 18 18 17 15 14 15 14 14 13 13 13 12 12 12 12 12 12 12 12 12 12 12 12 12 12 12 12 12 12 12 13 13 14 15 16
23 22 20 20 20 20 18 18 19 19 18 17 17 16 16 15 15 14 14 13 14 13 13 13 13 13 13 13 13 13 14 14 14 13 13 13 13 14 14 15 15 16 17 18
23 22 21 21 20 19 18 18 18 18 18 18 17 17 17 17 16 15 15 14 14 14 14 14 13 13 13 14 14 14 15 15 15 15 15 15 15 16 16 17 17 18 19 20
22 22 22 21 20 18 18 17 17 17 17 18 18 18 18 17 17 17 17 16 15 15 15 15 15 15 15 15 16 16 16 17 17 17 17 17 17 17 18 18 19 20 20 21
22 23 23 22 21 19 19 17 17 17 17 17 18 18 18 19 19 19 18 18 17 17 17 17 17 17 17 17 17 18 18 18 19 19 19 19 19 19 19 20 21 21 22 22
22 23 24 22 21 20 19 17 18 18 17 17 17 17 18 19 20 19 19 19 19 19 19 19 20 20 19 19 19 20 20 20 20 20 20 21 21 21 21 21 22 22 23 24
22 22 22 22 21 21 20 19 19 18 18 18 17 17 18 19 20 20 20 20 20 20 20 21 21 21 21 21 21 22 22 21 21 21 22 22 22 22 23 23 24 24 25 26
21 21 21 21 21 21 22 21 20 19 19 19 19 19 19 19 20 20 21 21 21 21 21 21 21 22 22 23 23 23 23 23 23 23 23 23 24 24 24 25 26 26 27 27
21 23 24 23 23 23 22 22 21 21 20 20 20 20 20 21 22 22 21 21 21 22 22 22 22 23 23 23 23 23 24 24 25 24 25 25 26 26 26 27 28 28 29 29
19 21 23 25 24 24 23 23 22 21 21 21 21 21 22 22 23 23 23 23 23 23 23 23 23 23 23 24 24 24 25 25 25 25 26 26 27 28 28 29 29 30 30 31

GEFSCGP_500_meanwind_144.txt.gz
Wind_Speed
13 12 11 11 11 10 10 11 12 13 13 13 13 12 11 11 11 11 10 8 8 7 6 5 5 5 5 4 4 4 5 6 7 7 7 8 9 8 8 9 9 9 10 10
13 13 12 12 11 11 11 11 11 10 10 11 12 10 9 10 10 9 9 7 7 5 5 4 4 3 4 3 3 4 4 4 5 6 5 5 6 7 7 8 8 8 9 9
14 13 13 11 12 12 12 12 10 9 9 9 10 9 9 10 10 10 9 7 6 5 3 3 3 2 2 1 2 2 2 3 4 4 5 5 5 5 5 6 7 7 8 8
15 15 15 13 13 12 12 10 10 10 9 8 9 10 10 10 9 9 8 7 5 4 2 2 2 1 1 1 1 1 1 2 3 4 4 4 3 4 4 5 5 6 6 6
15 15 16 16 15 14 12 11 11 10 10 10 10 10 12 11 10 8 6 5 3 3 2 2 2 1 1 1 1 0 0 1 1 2 2 2 2 3 3 3 4 5 5 5
16 17 17 17 16 16 14 12 12 12 12 12 9 9 12 10 9 8 6 4 2 2 1 1 2 2 2 2 2 2 2 3 3 2 2 1 0 1 1 2 2 3 4 4
16 17 17 17 17 15 14 12 13 12 10 10 8 9 11 9 8 8 7 4 3 2 1 0 1 1 2 2 2 3 3 3 3 3 2 2 1 1 2 2 2 3 3 4
15 16 17 18 18 15 13 12 13 13 12 12 10 8 7 8 7 8 7 5 3 3 2 1 1 1 1 1 1 2 2 2 2 2 2 2 1 2 2 2 2 3 4 5
18 18 19 19 17 15 14 13 12 13 14 13 10 8 6 5 6 6 6 5 4 4 3 2 2 1 0 1 1 1 1 1 1 1 1 1 1 1 2 2 3 4 4 5
20 20 18 17 16 14 13 13 12 13 14 11 9 8 7 5 6 5 6 5 4 4 4 3 3 2 2 2 1 1 1 1 1 1 1 1 1 2 2 3 4 4 5 6
22 22 20 17 15 15 15 15 15 14 15 12 11 10 9 8 7 6 5 5 5 5 4 4 4 4 3 3 2 2 2 2 2 2 2 2 3 3 3 4 4 5 6 7
21 23 23 21 19 19 18 17 16 16 15 13 12 12 9 8 8 6 7 6 6 6 6 5 5 5 5 4 4 4 3 3 3 3 3 3 4 4 4 5 5 6 7 8
24 26 25 23 23 22 20 19 17 16 15 14 12 12 11 9 8 8 9 8 8 7 7 6 6 6 6 6 6 5 5 5 5 5 5 5 5 6 6 6 7 8 8 9
25 26 26 24 23 24 22 21 18 17 17 16 14 13 12 10 10 11 11 9 9 9 8 8 7 7 7 7 6 6 6 6 6 6 6 7 7 7 8 8 8 9 10 10
26 27 27 27 27 24 21 18 18 19 17 16 15 15 15 12 12 13 12 11 11 11 9 9 9 9 8 8 8 8 8 8 8 8 8 8 8 9 9 9 10 10 11 12
26 26 27 27 26 22 20 18 16 16 15 16 17 17 17 16 15 15 15 14 14 13 11 10 10 10 10 9 9 9 9 9 9 9 9 9 10 10 11 11 11 12 12 13
26 25 25 24 25 24 20 18 17 16 15 17 18 20 19 16 15 15 15 15 15 14 13 12 11 11 11 11 10 10 10 11 11 11 11 11 11 12 12 13 13 14 14 15
27 25 24 23 24 24 18 17 18 16 18 19 21 21 20 19 18 18 18 17 16 15 14 14 13 12 12 12 12 12 12 12 12 12 13 13 13 13 14 15 15 16 16 17
25 25 25 25 25 24 21 18 18 20 21 21 21 20 22 21 20 19 18 18 17 16 15 15 15 14 14 13 13 13 13 14 14 14 14 14 15 15 16 16 17 17 18 19
24 26 27 25 26 25 22 19 20 20 21 21 22 23 23 22 21 20 19 19 18 17 16 17 16 15 15 15 15 15 15 15 16 16 16 16 16 17 18 18 19 19 20 20
23 24 26 26 25 24 20 21 22 20 19 20 22 22 22 22 22 21 21 20 18 17 18 18 17 17 17 17 16 17 17 17 17 17 18 18 18 19 19 20 20 21 21 22
23 25 25 24 26 25 22 19 20 20 20 21 21 20 20 21 21 21 21 21 19 19 19 18 18 18 18 18 18 19 19 19 19 19 20 20 20 21 21 21 22 23 23 24
20 20 22 23 23 23 23 22 19 18 19 20 21 21 21 20 20 21 21 21 20 20 19 19 19 19 20 20 20 20 20 20 21 21 21 22 22 22 22 22 23 24 25 26
18 19 21 22 23 23 24 23 21 19 20 20 20 21 21 21 21 21 21 21 21 21 20 20 20 20 21 21 22 22 22 22 22 22 23 23 23 23 23 24 25 26 26 27
18 19 21 22 22 22 23 23 22 22 23 23 21 21 21 21 21 21 21 21 21 21 21 21 21 21 21 22 23 23 23 22 23 23 24 24 24 25 25 26 27 28 29 29
21 22 23 23 24 24 24 24 24 24 23 22 22 22 22 22 22 22 22 21 21 21 22 22 22 22 23 24 24 24 24 24 24 24 24 25 25 26 27 28 28 29 29 30

GEFSCGP_500_meanwind_150.txt.gz
Wind_Speed
15 14 12 12 11 9 9 10 10 9 9 10 9 10 10 9 8 9 8 8 6 5 5 4 4 3 3 4 5 6 7 7 8 8 9 9 9 8 7 7 7 7 7 7
15 14 12 12 11 10 11 11 10 9 9 10 10 10 10 10 9 9 8 7 6 5 4 3 3 2 3 4 5 5 6 7 7 7 7 7 8 8 7 6 6 6 6 6
14 13 14 13 12 12 12 12 10 10 11 12 12 12 12 11 10 9 7 6 6 4 3 2 2 3 3 4 5 5 5 6 6 7 7 7 7 7 7 6 5 5 5 5
14 14 14 14 13 13 13 11 11 11 13 13 14 14 11 10 10 8 6 5 4 3 1 2 4 4 4 4 5 5 6 6 6 6 7 6 6 7 6 5 5 4 4 4
13 14 16 16 15 14 13 11 12 13 15 15 15 15 12 9 8 7 5 4 3 1 1 3 4 4 4 4 4 5 6 7 7 6 7 7 7 7 6 5 4 3 2 2
13 15 16 16 15 15 14 14 15 15 16 16 15 13 11 10 8 6 5 4 2 2 3 4 5 4 4 4 5 6 6 7 7 7 7 7 7 7 6 5 4 3 2 2
14 15 15 16 16 16 15 16 16 17 16 15 15 14 11 10 8 6 3 3 4 4 4 5 5 5 4 5 5 6 6 6 7 7 7 7 7 6 6 5 4 4 3 2
15 15 15 16 17 16 15 17 17 18 16 15 15 14 11 9 7 6 4 4 5 6 6 6 6 5 5 5 5 6 6 6 7 7 7 7 7 6 6 5 4 4 3 2
18 17 18 19 19 18 18 19 18 18 16 15 15 12 9 7 7 7 5 5 5 7 7 7 6 5 5 5 5 5 6 6 6 6 7 7 7 7 6 5 4 4 3 2
22 22 20 21 20 20 21 21 20 20 18 16 15 12 10 9 7 7 6 7 7 8 8 7 6 6 5 5 5 5 5 5 5 6 7 7 7 6 6 5 4 3 2 1
23 24 22 22 21 20 20 21 20 19 19 18 16 14 12 10 8 6 4 7 9 9 9 8 7 6 5 5 5 5 5 5 6 6 7 7 6 6 5 4 3 3 2 1
24 24 23 22 22 22 20 20 20 20 19 18 17 14 12 11 9 7 5 7 8 8 8 8 7 6 6 6 5 5 5 5 6 6 7 6 5 5 5 4 3 2 2 2
25 25 24 22 23 23 24 23 21 21 21 20 17 13 12 12 10 7 6 7 7 8 7 7 6 6 6 6 6 6 6 6 6 6 6 6 6 6 5 5 4 4 3 3
26 25 25 25 23 22 23 25 24 23 22 19 16 15 13 12 9 8 7 7 6 7 7 7 7 6 6 6 6 7 7 7 6 6 7 7 7 7 6 6 6 5 5 5
26 25 25 25 24 23 25 25 26 25 22 19 17 17 14 12 10 8 8 8 7 7 7 7 7 7 7 7 7 7 7 7 7 8 8 8 8 8 8 7 7 7 7 7
24 26 25 25 25 24 24 24 24 24 24 21 20 18 15 13 12 9 8 9 8 8 8 8 8 8 8 8 8 8 8 8 8 9 9 9 10 9 9 9 9 9 9 9
24 24 25 25 25 25 25 23 24 25 25 24 22 18 16 14 14 11 9 9 9 9 10 9 9 10 9 10 10 9 9 9 9 9 10 10 11 11 11 11 11 11 11 11
23 23 24 23 23 23 21 23 24 25 25 25 23 21 19 17 14 12 11 10 11 10 10 10 10 10 10 10 10 10 10 11 11 11 11 11 12 12 13 13 13 13 13 13
22 21 22 23 22 22 21 22 22 24 26 25 22 21 21 19 15 13 11 11 10 11 11 11 11 11 11 12 12 12 12 13 12 12 13 13 13 13 14 14 14 15 15 15
21 21 21 22 23 23 22 22 23 23 24 23 22 21 20 19 16 12 12 11 11 10 11 12 13 13 13 13 14 14 14 14 14 14 14 15 15 15 15 16 16 17 17 17
20 20 22 23 23 23 22 22 24 24 22 22 22 23 22 20 16 15 14 13 13 12 12 14 14 15 15 16 16 16 16 16 16 16 16 16 17 17 17 17 18 19 19 19
19 21 21 23 24 22 21 23 24 22 23 25 25 24 22 19 17 16 15 15 14 13 14 15 15 15 16 17 17 17 17 17 17 17 17 18 18 19 20 20 21 21 21 21
18 18 18 20 22 21 20 19 20 21 21 21 22 24 21 19 19 17 16 16 15 15 16 16 16 16 17 17 18 18 18 18 18 18 19 19 19 20 21 22 22 22 22 23
17 18 19 20 21 21 20 19 19 18 19 18 20 21 20 20 20 18 18 17 17 18 18 17 17 17 17 18 19 19 19 19 20 20 20 21 21 21 22 22 23 23 24 24
16 17 18 19 20 20 19 19 19 17 17 18 18 20 21 20 19 19 19 19 20 20 20 19 18 18 19 19 20 20 20 20 21 22 22 22 23 23 23 24 24 25 25 25
16 17 18 19 19 19 18 17 17 18 18 18 18 18 19 19 19 19 19 19 20 20 22 22 21 20 20 20 21 21 21 22 22 23 23 24 24 24 24 26 26 27 27 28

GEFSCGP_500_meanwind_156.txt.gz
Wind_Speed
18 17 17 17 17 17 17 16 14 12 13 14 14 14 13 13 13 11 10 10 11 10 10 10 9 8 8 9 9 11 11 11 12 13 12 12 13 12 11 10 10 10 9 9
17 16 17 18 18 18 18 16 14 13 13 14 15 14 13 13 12 11 11 11 11 10 9 8 8 7 7 8 9 10 10 11 12 12 12 12 12 11 10 9 9 9 9 8
16 16 18 18 19 19 18 17 15 14 15 16 17 15 15 13 12 12 11 10 9 9 8 7 7 7 7 8 9 10 10 10 11 11 12 12 11 10 9 8 8 8 7 7
16 17 18 19 19 19 18 17 16 15 15 16 16 14 14 13 13 13 11 10 8 7 7 7 7 8 8 9 9 10 10 10 11 12 12 12 11 11 10 9 8 7 6 6
16 17 19 19 19 19 18 17 17 17 16 16 16 15 14 14 12 12 10 9 8 7 6 6 7 8 9 9 9 9 9 10 10 11 11 12 11 11 11 10 8 8 7 6
17 18 18 18 19 19 18 18 19 18 17 17 16 17 15 14 12 11 10 9 8 6 6 6 7 8 9 9 9 9 9 11 10 10 11 11 11 11 11 10 9 8 7 6
17 17 18 18 19 19 19 18 18 18 17 16 16 16 15 12 12 11 10 9 7 7 7 8 7 7 8 9 9 9 10 11 11 10 11 11 11 11 10 9 9 8 8 7
16 17 17 18 18 19 18 18 18 18 17 17 17 16 14 12 11 10 9 8 6 7 7 8 8 7 9 9 9 9 9 11 11 11 10 11 11 10 10 9 9 8 8 7
16 16 17 18 18 18 18 19 19 19 18 18 17 16 15 13 11 10 8 8 7 7 7 7 7 8 9 9 9 8 8 9 10 10 10 10 11 10 10 9 9 9 8 7
17 17 18 18 18 18 18 18 19 20 20 18 17 15 14 12 11 9 8 8 8 8 8 7 6 8 9 10 9 9 9 9 9 10 10 11 11 10 10 10 9 9 8 7
19 18 19 19 20 20 20 19 20 21 20 18 16 15 14 12 11 10 9 9 9 8 9 9 8 8 9 10 10 9 9 9 10 10 11 10 10 11 10 10 10 9 8 8
21 21 21 21 22 22 22 20 20 20 20 19 17 13 13 13 12 11 11 11 11 10 10 10 9 9 10 10 10 10 10 9 10 11 11 10 11 10 10 10 9 9 8 7
23 23 22 23 23 23 23 21 20 20 20 20 18 14 13 13 13 12 12 13 12 12 12 11 11 11 11 11 11 11 10 10 10 10 11 11 11 11 11 10 9 9 8 8
26 25 25 25 24 24 24 22 21 21 21 20 18 15 13 13 13 13 13 13 13 13 13 13 13 12 12 12 12 12 11 11 11 10 10 10 10 11 11 10 10 9 9 9
28 27 26 26 26 26 25 24 23 22 21 20 17 15 13 14 14 14 14 14 13 13 13 13 13 13 13 13 13 12 12 12 12 11 11 10 10 11 11 11 11 10 10 11
28 28 27 26 26 27 25 24 23 22 21 20 18 16 16 16 15 15 16 15 15 14 15 14 14 14 14 14 13 13 13 13 13 12 12 12 12 12 12 12 12 12 12 12
27 27 26 26 26 27 26 23 23 22 20 20 19 17 18 18 16 16 17 17 16 16 16 16 15 15 15 14 14 14 14 13 13 13 13 13 13 13 13 13 13 13 13 14
25 25 25 25 25 26 22 22 22 21 21 20 19 19 19 19 18 18 17 18 19 19 18 18 17 17 16 16 15 15 15 14 13 13 13 13 14 14 14 15 15 15 15 15
23 23 23 23 23 23 21 21 22 21 20 19 18 19 19 20 20 19 18 19 20 20 20 20 20 19 18 18 17 16 16 16 15 14 14 14 15 15 15 15 16 16 16 17
22 22 22 21 22 21 20 20 20 21 20 19 19 19 19 20 21 20 19 19 20 21 21 21 21 20 19 19 18 18 17 16 16 16 16 16 16 16 16 16 17 17 18 18
22 22 21 21 20 20 19 19 20 20 19 18 19 19 20 20 21 21 21 21 21 22 22 23 22 21 21 20 20 19 19 18 18 18 18 17 18 18 18 18 18 19 19 20
21 21 21 21 20 19 18 19 19 19 19 19 19 19 20 22 22 22 21 22 23 23 22 23 24 23 22 21 21 21 20 20 20 19 19 20 20 20 20 20 21 21 21 21
19 19 20 20 20 19 19 19 18 18 18 19 20 21 21 22 23 23 22 22 23 23 23 23 24 24 23 23 22 22 21 22 22 22 21 21 21 22 22 22 23 23 23 23
19 19 19 20 20 19 19 19 20 20 19 19 19 20 21 22 22 22 23 23 23 24 23 23 23 24 24 23 23 23 23 23 23 23 22 21 22 23 23 23 24 25 25 25
18 18 18 19 19 19 19 20 20 21 20 19 19 18 19 20 21 22 23 24 23 24 24 23 23 24 24 24 24 24 24 23 24 23 24 23 23 24 24 25 25 26 26 27
16 18 18 18 18 19 20 21 21 21 21 21 21 20 20 20 21 22 23 24 23 23 23 23 23 23 23 24 25 25 25 24 24 24 24 24 24 25 26 27 27 27 28 28

GEFSCGP_500_meanwind_162.txt.gz
Wind_Speed
16 15 16 16 16 16 16 15 15 15 16 15 15 15 15 13 13 12 12 12 12 12 12 12 12 12 12 13 14 15 15 14 14 14 15 15 15 14 13 13 13 13 12 11
16 16 17 17 16 16 16 15 15 15 16 15 15 15 16 14 13 13 12 12 12 13 13 12 12 12 12 12 13 14 15 15 14 14 14 14 14 13 13 13 12 12 12 11
16 17 18 17 16 15 15 15 15 15 16 15 15 14 15 14 13 13 13 13 13 14 13 13 12 12 12 12 12 14 16 15 14 14 14 14 13 13 13 12 12 11 12 11
18 19 18 17 16 15 15 16 15 16 15 14 14 12 13 13 13 12 12 12 12 13 13 12 12 11 11 12 12 14 16 15 15 15 14 14 13 13 13 12 12 11 11 10
18 18 17 17 16 16 16 16 15 15 14 14 15 14 12 14 12 12 12 12 11 11 12 11 11 11 11 11 12 13 15 15 14 14 14 14 14 13 13 13 12 11 10 10
18 17 17 16 16 16 16 15 15 14 13 14 14 14 12 13 12 11 11 10 10 10 11 11 11 11 11 12 12 12 13 14 14 13 13 13 13 13 13 13 12 11 10 9
17 17 16 16 15 16 16 14 13 12 12 13 14 13 12 11 10 10 10 10 10 10 11 11 11 10 10 11 11 12 12 13 13 13 12 12 13 13 13 13 12 11 10 9
16 15 17 16 16 16 16 14 13 12 11 11 14 13 11 11 11 10 10 10 10 10 9 9 10 10 11 11 11 12 12 12 13 12 12 13 13 13 13 13 12 11 10 9
15 16 18 17 16 16 17 15 15 14 13 11 12 13 12 11 11 11 10 10 10 9 9 9 9 9 11 11 11 12 12 12 13 13 13 14 13 13 13 13 12 12 11 10
17 17 18 17 17 17 17 16 16 14 13 12 11 12 11 10 10 10 10 10 9 9 8 8 9 9 9 10 11 12 12 12 12 13 13 13 13 13 13 13 13 12 11 10
19 17 18 18 17 17 18 17 16 15 14 13 11 12 12 10 10 10 10 9 9 9 9 10 10 10 10 10 11 12 11 12 11 12 12 12 13 13 13 13 13 12 11 10
20 18 18 18 18 19 19 18 17 16 15 14 13 13 13 11 10 11 11 10 10 10 10 11 11 11 11 10 11 11 12 11 11 11 11 12 13 13 12 12 12 11 11 11
19 19 18 18 19 20 20 19 18 18 17 16 14 13 14 12 12 12 12 12 11 12 12 12 12 12 11 11 11 11 12 11 11 11 11 11 12 12 12 12 12 12 11 11
20 19 19 18 19 20 20 20 20 19 18 18 17 16 15 14 14 14 14 14 13 14 14 13 13 13 12 12 12 12 12 12 12 12 12 12 12 12 12 12 12 12 12 12
23 22 21 21 21 21 21 21 21 21 20 19 19 19 17 15 16 16 15 15 15 14 14 14 14 13 13 13 12 13 12 12 12 12 13 13 13 12 12 12 12 12 13 13
24 23 22 22 23 23 23 22 22 22 20 20 19 18 17 18 18 17 17 16 16 16 15 15 15 14 14 13 13 14 13 13 12 12 13 14 14 13 13 12 12 13 13 13
24 23 22 22 23 24 23 21 22 22 21 20 19 19 20 20 20 19 19 18 18 17 16 16 16 16 14 14 15 14 14 14 13 13 13 14 14 13 13 13 13 13 13 13
24 24 23 22 23 24 22 21 21 22 21 21 20 20 21 21 21 20 20 20 19 19 18 18 18 17 16 16 15 15 14 14 14 14 14 13 13 13 13 14 14 14 14 15
24 23 23 23 23 23 22 21 21 21 21 21 21 20 21 21 21 21 19 19 20 21 19 19 19 18 17 17 16 16 15 14 14 14 15 15 15 15 15 15 15 15 15 16
24 24 24 24 23 22 22 21 21 21 21 21 21 21 21 22 23 21 21 20 20 21 20 20 20 19 18 18 17 17 16 16 16 16 16 16 17 17 17 17 17 17 17 18
24 24 23 23 23 23 22 20 21 21 20 20 21 21 21 22 23 22 22 21 21 21 21 21 21 21 20 19 19 18 18 18 18 18 17 17 18 18 18 18 18 18 19 19
23 22 23 22 22 23 21 21 22 22 21 20 21 21 21 22 22 22 22 23 23 23 22 22 22 22 22 21 20 19 19 19 20 19 19 19 19 19 19 19 20 20 20 21
23 23 23 23 23 22 22 22 22 22 22 22 22 22 22 22 23 22 22 23 24 25 24 24 23 23 23 22 22 21 21 21 21 21 21 21 21 21 21 21 22 21 21 22
22 22 23 23 22 21 21 22 22 21 22 22 23 23 22 22 22 23 23 23 23 24 24 23 24 24 24 23 23 23 23 23 23 23 23 23 23 23 23 23 23 23 23 24
21 22 22 22 21 21 22 21 21 22 22 23 23 24 23 23 22 22 22 23 23 23 23 23 23 24 24 25 25 24 24 25 24 24 24 24 24 25 24 25 25 25 26 26
21 22 21 21 21 22 22 22 22 21 22 23 24 24 24 24 23 22 22 22 23 23 23 23 23 24 24 25 25 25 25 26 26 26 26 26 26 26 27 27 27 28 28 28

GEFSCGP_500_meanwind_168.txt.gz
Wind_Speed
16 16 15 13 14 14 13 13 13 12 12 14 16 15 14 14 13 15 16 15 15 14 13 13 12 12 12 12 13 13 13 13 12 13 14 14 14 14 13 12 12 12 12 12
16 15 14 14 15 16 16 15 14 13 14 16 17 16 14 13 14 15 17 16 15 14 14 13 13 13 13 13 13 13 13 12 12 11 13 14 14 13 12 12 11 12 12 12
14 12 14 16 15 16 16 15 15 16 15 16 16 17 16 14 14 15 15 16 15 15 14 13 13 13 13 13 13 13 13 13 13 13 12 12 12 12 12 11 11 11 11 11
16 15 15 17 17 16 16 15 15 16 15 16 17 18 17 14 14 14 15 15 15 15 14 13 13 13 12 13 13 13 13 13 13 14 12 11 11 11 12 11 11 11 11 11
16 17 17 17 16 16 17 15 15 16 16 17 17 17 17 14 14 14 14 14 14 15 14 13 13 13 12 12 13 13 13 13 13 13 12 12 11 11 10 10 9 10 11 11
17 17 17 17 16 16 16 15 16 15 15 17 15 16 16 14 14 14 15 14 14 13 13 13 13 12 11 12 12 12 12 13 13 12 12 12 11 11 10 10 10 9 10 10
17 17 16 16 17 17 16 15 15 16 16 16 16 17 16 15 15 14 15 15 14 12 12 12 11 10 10 11 11 11 12 12 12 11 11 11 11 11 10 10 10 9 9 9
16 17 17 18 18 16 15 15 16 17 16 16 15 15 14 11 14 15 15 15 15 13 12 11 11 10 10 10 11 11 12 12 12 11 11 10 10 10 10 9 10 10 9 9
15 16 18 20 18 17 16 16 15 18 17 17 15 11 12 10 13 14 13 14 14 13 12 12 11 10 10 10 10 11 12 12 12 11 11 10 10 10 10 9 10 10 10 9
19 19 19 19 17 16 17 16 16 18 18 17 14 14 14 11 11 12 13 14 15 13 13 13 11 11 10 10 11 11 11 11 11 11 11 11 10 10 10 10 10 10 10 10
21 20 18 19 18 15 16 17 18 18 18 17 17 16 14 12 11 13 14 14 14 13 12 11 11 10 10 10 10 11 11 11 11 10 10 11 11 11 10 10 10 10 11 10
23 21 21 21 19 18 18 19 19 20 20 19 18 18 14 12 12 12 14 15 14 12 11 11 11 11 10 11 11 11 10 10 10 10 10 10 11 11 11 11 11 11 11 11
24 24 22 21 21 21 20 19 19 19 20 19 19 18 17 13 13 11 14 15 14 13 11 10 11 11 11 11 11 11 10 10 10 10 9 9 9 10 11 11 11 11 12 11
27 26 24 22 22 22 21 21 21 20 21 19 20 21 19 16 15 14 16 15 14 14 12 12 11 11 11 11 11 11 11 10 10 9 9 9 9 10 10 10 11 11 11 11
27 27 26 25 23 21 20 22 21 21 20 19 20 22 21 18 16 15 14 15 16 15 14 13 13 12 11 11 11 11 11 10 10 10 10 10 10 10 10 11 10 10 11 11
28 28 27 27 25 24 23 22 21 21 19 18 21 24 22 19 17 15 15 16 17 17 15 14 14 13 13 12 11 11 11 10 10 11 10 10 10 10 11 11 11 11 11 10
27 27 27 26 24 23 24 21 21 20 21 21 23 25 24 20 18 17 18 19 18 18 17 16 15 14 14 13 13 12 12 11 11 11 11 11 11 11 11 11 11 12 12 11
27 27 27 26 25 24 21 20 19 21 23 23 24 23 24 23 21 20 21 20 18 19 18 17 16 16 16 15 15 13 12 12 12 12 12 12 12 12 12 13 13 13 12 12
27 27 26 25 24 24 21 20 21 23 23 24 24 23 23 23 21 21 22 21 20 20 19 19 18 18 18 17 16 15 14 13 12 12 12 12 12 13 14 14 14 14 13 13
27 26 25 25 24 22 22 23 23 23 23 24 23 22 22 23 23 22 22 22 21 21 21 20 19 19 18 18 18 17 16 15 14 14 14 14 14 14 14 15 15 14 14 14
25 25 26 26 25 24 24 24 24 24 24 24 23 22 21 23 24 23 22 22 22 21 21 20 21 20 19 19 19 19 18 17 17 16 16 16 16 16 15 15 15 15 15 16
25 26 26 27 27 25 26 26 26 25 25 25 24 23 23 23 23 23 22 22 22 21 21 21 21 21 21 21 20 20 20 19 19 18 18 18 17 17 17 17 17 17 17 17
27 26 25 26 26 27 27 27 26 25 24 24 24 24 23 23 24 23 23 22 22 22 21 20 20 21 22 22 22 22 22 21 20 20 19 19 19 19 19 19 19 19 19 19
25 26 26 27 27 27 26 26 26 26 25 24 23 23 23 23 24 24 23 23 22 21 21 20 21 21 22 22 23 23 23 23 22 22 21 21 20 20 20 21 21 21 21 22
23 24 25 25 27 27 27 27 26 26 25 25 24 23 23 23 23 23 23 23 23 22 22 22 22 22 23 23 23 24 24 24 23 23 23 23 22 22 22 22 23 23 23 24
23 23 24 24 25 25 26 26 25 25 25 24 24 23 23 23 22 23 23 23 23 22 22 22 22 22 23 23 23 24 24 24 24 24 24 24 23 23 24 25 25 25 26 26